Погода в Тысменице

Украина / Ивано-Франковская область     48°54′07″N   24°50′53″E
темп.,
°C
ветер,
м/с
пор.,
м/с
влажн.,
%
обл.,
%
осадки,
мм/ч
давл.,
гПа
погр.,
м
18 апреля, вс
вс1800:00+5всв2380100 0.0 1020104
03:00+5в2382100 0.0 102094
06:00+4в128692 0.0 101957
09:00+6в2379100 0.0 1019356
12:00+10вюв3466100 0.0 10191167
15:00+11вюв2358100 0.1 10181412
18:00+10св2367100 0.0 1017185
21:00+9в1167100 0.0 101812
19 апреля, пн
пн1900:00+7ю1174100 0.0 101811
03:00+6з0081100 0.0 101810
06:00+6з1181100 0.0 101710
09:00+8ссв0075100 0.0 1017205
12:00+11всв2266100 0.0 1016960
15:00+11св446988 0.3 1016944
18:00+9всв468699 1.3 1015437
21:00+8ссв2291100 2.3 101566
20 апреля, вт
вт2000:00+8всв2492100 0.8 1014122
03:00+8св2587100 1.1 1013124
06:00+6св2588100 0.0 1013135
09:00+8всв2478100 0.0 1014364
12:00+11св3360100 0.8 10131167
15:00+12с3348100 1.1 10121886
18:00+12с3454100 0.0 10111378
21:00+7ссз227383 0.0 101310
21 апреля, ср
ср2100:00+5зсз118438 0.0 101310
03:00+4з118763 0.0 101410
06:00+3з118878 0.0 101410
09:00+8зсз1273100 0.0 1015253
12:00+12зсз235690 0.1 10141274
15:00+13зюз3452100 0.4 10131410
18:00+12зсз466797 1.7 10141076
21:00+7з348035 1.9 101549
22 апреля, чт
чт2200:00+6юз238563 0.0 101643
03:00+5ююз228857 0.0 101627
06:00+5ююз229086 0.0 101630
09:00+11ююз487396 0.0 1015588
12:00+15зюз685258 0.1 10151674
15:00+14з6852100 0.5 10151732
18:00+7ссв3592100 6.1 1016305
21:00+5зсз5894100 12.1 1019508